Location: Chervonnoye
(48.6000°N, 34.4000°E)
Time: 16:19:00
(UTC+00:00)

H-2A R/B - Pass Details

Date: 23 November 2020
Orbit: 578 x 654 km, 98.5° (Epoch: 27 January)

Event Time Altitude Azimuth Distance (km) Brightness Sun altitude
Exits shadow 15:40:44 -1° 7° (N) 2,903 5.3 -17.1°
Rises 15:40:56 0° 7° (N) 2,817 5.3 -17.2°
Reaches altitude 10° 15:43:13 10° 358° (N) 1,919 4.5 -17.5°
Maximum altitude 15:46:59 35° 293° (WNW) 968 3.5 -18.2°
Drops below altitude 10° 15:50:48 10° 228° (SW) 1,938 5.4 -18.8°
Sets 15:53:06 0° 219° (SW) 2,849 6.2 -19.2°
